TimeEST,TemperatureF,Dew PointF,Humidity,Sea Level PressureIn,VisibilityMPH,Wind Direction,Wind SpeedMPH,Gust SpeedMPH,PrecipitationIn,Events,Conditions,WindDirDegrees,DateUTC
12:52 AM,21.9,10.0,60,30.14,10.0,WNW,3.5,-,N/A,,Clear,290,2013-02-16 05:52:00
1:52 AM,19.0,10.9,71,30.13,10.0,WSW,5.8,-,N/A,,Clear,240,2013-02-16 06:52:00
2:52 AM,19.9,12.9,74,30.11,10.0,Calm,Calm,-,N/A,,Overcast,0,2013-02-16 07:52:00
3:52 AM,19.9,12.9,74,30.09,10.0,Calm,Calm,-,N/A,,Overcast,0,2013-02-16 08:52:00
4:52 AM,21.2,14.0,74,30.06,10.0,West,3.5,-,N/A,,Overcast,270,2013-02-16 09:52:00
5:52 AM,21.0,14.0,74,30.08,10.0,Calm,Calm,-,N/A,,Overcast,0,2013-02-16 10:52:00
6:52 AM,19.0,14.0,81,30.07,10.0,Calm,Calm,-,N/A,,Overcast,0,2013-02-16 11:52:00
7:52 AM,21.0,16.0,81,30.07,8.0,Calm,Calm,-,0.00,,Overcast,0,2013-02-16 12:52:00
8:52 AM,21.9,18.0,85,30.07,7.0,SW,4.6,-,0.00,,Overcast,230,2013-02-16 13:52:00
9:50 AM,24.8,19.4,80,30.03,7.0,WSW,6.9,-,0.00,Snow,Light Snow,250,2013-02-16 14:50:00
9:52 AM,24.1,18.0,77,30.06,7.0,WSW,6.9,-,0.00,,Overcast,240,2013-02-16 14:52:00
10:52 AM,25.0,16.0,69,30.05,4.0,West,10.4,-,0.00,Snow,Light Snow,280,2013-02-16 15:52:00
11:30 AM,28.4,15.8,59,30.02,6.0,West,18.4,23.0,0.00,,Haze,280,2013-02-16 16:30:00
11:35 AM,24.8,17.6,74,30.02,0.8,WNW,15.0,23.0,0.00,Snow,Light Snow,300,2013-02-16 16:35:00
11:47 AM,23.0,17.6,80,30.02,1.5,WNW,9.2,-,0.00,Snow,Light Snow,290,2013-02-16 16:47:00
11:50 AM,23.0,17.6,80,30.02,3.0,WNW,8.1,-,0.00,Snow,Light Snow,300,2013-02-16 16:50:00
11:52 AM,24.1,18.0,77,30.05,7.0,WNW,8.1,-,0.00,Snow,Light Snow,290,2013-02-16 16:52:00
12:05 PM,26.6,15.8,64,30.01,10.0,WNW,5.8,-,N/A,,Mostly Cloudy,290,2013-02-16 17:05:00
12:52 PM,26.1,10.9,53,30.03,10.0,West,10.4,-,N/A,,Overcast,280,2013-02-16 17:52:00
1:52 PM,26.1,12.0,55,30.01,10.0,West,12.7,-,0.00,Snow,Light Snow,280,2013-02-16 18:52:00
2:52 PM,25.0,12.9,60,30.01,9.0,WNW,13.8,-,0.00,Snow,Light Snow,300,2013-02-16 19:52:00
3:52 PM,24.1,14.0,65,30.02,1.5,WNW,12.7,-,0.00,Snow,Light Snow,300,2013-02-16 20:52:00
3:56 PM,23.0,15.8,74,29.99,1.0,WNW,6.9,-,0.00,Snow,Light Snow,300,2013-02-16 20:56:00
4:03 PM,23.0,14.0,68,29.99,2.0,West,9.2,-,0.00,Snow,Light Snow,270,2013-02-16 21:03:00
4:08 PM,23.0,12.2,63,29.99,5.0,WNW,6.9,-,0.00,Snow,Light Snow,290,2013-02-16 21:08:00
4:52 PM,23.0,10.9,60,30.04,9.0,WNW,12.7,23.0,0.00,Snow,Light Snow,300,2013-02-16 21:52:00
5:52 PM,21.0,8.1,57,30.06,10.0,WNW,11.5,-,0.00,,Mostly Cloudy,290,2013-02-16 22:52:00
6:52 PM,19.9,3.9,50,30.08,10.0,West,13.8,-,N/A,,Overcast,280,2013-02-16 23:52:00
7:52 PM,19.9,7.0,57,30.08,10.0,WNW,13.8,-,N/A,,Overcast,300,2013-02-17 00:52:00
8:52 PM,17.6,8.6,68,30.06,10.0,WNW,13.8,-,N/A,,Clear,300,2013-02-17 01:52:00
9:52 PM,18.0,9.0,68,30.10,9.0,WNW,10.4,-,0.00,,Overcast,290,2013-02-17 02:52:00
10:52 PM,16.0,9.0,74,30.10,10.0,West,9.2,-,N/A,,Clear,280,2013-02-17 03:52:00
11:52 PM,15.1,9.0,77,30.10,10.0,West,6.9,-,N/A,,Clear,280,2013-02-17 04:52:00